www.prizrak.ws

Объявление

топ-линк
ГОСТЕВАЯ
Турнир "Отгадай-КА!"
Games of Forum
New Soft Download
призрачная галерея
Конкурс,акции,призы!
Rock - форум
ЯД раздача WMZ WMR
FAQ по форуму
раздача ICQ номеров
модеры форума
GOLD статусы к файлам!
форумный тотализатор
отгадай картинку и получи приз:
из какого АНИМЕ скрин?! ^_^||из какого фильма кадр?
mp3 конкурсы:угадай мелодию!||отгадай аниме OST!
Пользуйтесь ссылками: Мои сообщения и Поиск по форуму — это удобно!
Добавлять комментарии на форум могут только зарегистрированные пользователи за исключением сообщений в разделе "гостевая".
Перед использованием нашего форума просьба прочитать условия пользовательского соглашения!
При копировании любых материалов с форума, ссылка на форум http://prizrak.ws/ обязательна!
Добавь в закладки! Добавить в ИзбранноеДобавить в ИзбранноеДобавить в ИзбранноеДобавить в ИзбранноеДобавить в Избранное Сделай стартовой!

Информация о пользователе

Привет, Гость! Войдите или зарегистрируйтесь.


Вы здесь » www.prizrak.ws » Software, ОС, программное обеспечение..


Software, ОС, программное обеспечение..

Тем 16551 страница 16600 из 41299

Тема Ответов Просмотров Последнее сообщение
0 5 2018-03-08 23:47:08  TheCornor
0 5 2018-03-08 23:44:20  TheCornor
0 5 2018-03-08 23:36:46  TheCornor
16554 Hydra 4.1.1  TheCornor
0 4 2018-03-08 23:31:43  TheCornor
0 4 2018-03-08 23:29:30  TheCornor
16556 Privatus 5.1.1  TheCornor
0 4 2018-03-08 23:27:32  TheCornor
0 4 2018-03-08 23:25:10  TheCornor
0 4 2018-03-08 23:14:40  TheCornor
0 4 2018-03-08 23:03:58  TheCornor
0 5 2018-03-08 22:57:40  TheCornor
0 6 2018-03-08 22:53:30  TheCornor
0 5 2018-03-08 22:51:24  TheCornor
16563 iStat Menus v6.10 macOS  TheCornor
0 15 2018-03-08 22:49:18  TheCornor
0 7 2018-03-08 22:38:37  TheCornor
0 4 2018-03-08 22:32:20  TheCornor
0 6 2018-03-08 22:30:15  TheCornor
0 4 2018-03-08 22:28:09  TheCornor
16568 Deckset 2.0.0  TheCornor
0 4 2018-03-08 22:26:18  TheCornor
16569 Stardock Groupy 1.10 (x64)  TheCornor
0 4 2018-03-08 22:21:53  TheCornor
16570 Scrutiny 7.6.11  TheCornor
0 4 2018-03-08 22:19:48  TheCornor
0 3 2018-03-08 22:13:33  TheCornor
0 3 2018-03-08 22:11:28  TheCornor
0 2 2018-03-08 22:05:14  TheCornor
0 1 2018-03-08 21:54:46  TheCornor
0 2 2018-03-08 21:52:42  TheCornor
0 1 2018-03-08 21:50:36  TheCornor
0 1 2018-03-08 21:46:26  TheCornor
0 2 2018-03-08 21:42:16  TheCornor
16579 Hides 4.0.2  TheCornor
0 3 2018-03-08 21:31:37  TheCornor
0 3 2018-03-08 21:29:31  TheCornor
0 2 2018-03-08 21:27:26  TheCornor
16582 Snooper 1.48.7 + Portable  TheCornor
0 3 2018-03-08 21:25:20  TheCornor
0 2 2018-03-08 21:23:15  TheCornor
0 62 2018-03-08 21:19:05  TheCornor
0 3 2018-03-08 21:00:06  TheCornor
16586 EverWeb 2.7  TheCornor
0 3 2018-03-08 20:55:55  TheCornor
16587 hr 1.3.1  TheCornor
0 2 2018-03-08 20:45:28  TheCornor
0 1 2018-03-08 20:41:14  TheCornor
0 2 2018-03-08 20:38:45  Trust_Uploader
16590 SpeedTree Cinema 8.1.3  Trust_Uploader
0 8 2018-03-08 20:18:45  Trust_Uploader
0 3 2018-03-08 20:12:54  Trust_Uploader
0 3 2018-03-08 20:11:33  Trust_Uploader
0 5 2018-03-08 20:10:26  Trust_Uploader
16594 Lucinite Panels 2.0.1161.284  Trust_Uploader
0 4 2018-03-08 20:09:18  Trust_Uploader
0 3 2018-03-08 20:08:10  Trust_Uploader
16596 GrandTotal 5.1.1.4 macOS  Trust_Uploader
0 3 2018-03-08 20:07:03  Trust_Uploader
0 5 2018-03-08 20:05:57  Trust_Uploader
0 3 2018-03-08 20:04:50  Trust_Uploader
16599 iStat Menus v6.10 macOS  Trust_Uploader
0 14 2018-03-08 16:04:08  Trust_Uploader
0 11 2018-03-08 16:03:02  Trust_Uploader

Вы здесь » www.prizrak.ws » Software, ОС, программное обеспечение..